EW3976 Weather Reports


Display with metric or nautical units.
time (UTC)temp
F
wind
direction
speed
MPH
gust
MPH
rain 1hr
in
rain 24hr
in
rain mn
in
humidity
%
barometer
mb
20211130060723 50 0.0 0.0 0.00 0.00 0.00 74 1020.8
20211130055716 51 0.0 0.0 0.00 0.00 0.00 75 1020.7
20211130054716 51 0.0 1.0 0.00 0.00 0.00 75 1020.7
20211130053716 51 0.0 0.0 0.00 0.00 0.00 75 1020.6
20211130052716 51 203 1.0 2.0 0.00 0.00 0.00 76 1020.6
20211130051716 51 0.0 1.0 0.00 0.00 0.00 77 1020.6
20211130050716 52 0.0 0.0 0.00 0.00 0.00 76 1020.7
20211130045716 52 0.0 1.0 0.00 0.00 0.00 76 1020.6
20211130044716 52 0.0 1.0 0.00 0.00 0.00 76 1020.6
20211130043716 53 0.0 0.0 0.00 0.00 0.00 77 1020.6
20211130042716 53 203 1.0 1.0 0.00 0.00 0.00 77 1020.5
20211130041718 54 0.0 0.0 0.00 0.00 0.00 77 1020.5
20211130040716 54 229 0.0 0.0 0.00 0.00 0.00 77 1020.4
20211130035715 55 0.0 1.0 0.00 0.00 0.00 76 1020.4
20211130034716 55 0.0 1.0 0.00 0.00 0.00 76 1020.3
20211130033715 56 0.0 1.0 0.00 0.00 0.00 76 1020.3
20211130032716 56 0.0 0.0 0.00 0.00 0.00 76 1020.3
20211130031716 56 0.0 0.0 0.00 0.00 0.00 75 1020.1
20211130030716 57 0.0 1.0 0.00 0.00 0.00 74 1019.9
20211130025716 58 0.0 0.0 0.00 0.00 0.00 73 1019.8
20211130024715 58 0.0 0.0 0.00 0.00 0.00 72 1019.8
20211130023717 59 158 1.0 1.0 0.00 0.00 0.00 70 1019.8
20211130022715 61 0.0 1.0 0.00 0.00 0.00 69 1019.8
20211130021716 61 0.0 0.0 0.00 0.00 0.00 68 1019.7
20211130020716 62 293 1.0 1.0 0.00 0.00 0.00 68 1019.6
20211130015715 62 0.0 1.0 0.00 0.00 0.00 68 1019.6
20211130014715 63 0.0 0.0 0.00 0.00 0.00 66 1019.5
20211130013715 63 0.0 0.0 0.00 0.00 0.00 64 1019.4
20211130012715 64 45 1.0 1.0 0.00 0.00 0.00 63 1019.4
20211130011715 65 0.0 0.0 0.00 0.00 0.00 61 1019.4
20211130010721 66 0.0 0.0 0.00 0.00 0.00 59 1019.6
20211130010116 67 0.0 0.0 0.00 0.00 0.00 58 1019.6
20211130005115 68 0.0 1.0 0.00 0.00 0.00 57 1019.6
20211130004115 69 338 1.0 2.0 0.00 0.00 0.00 55 1019.6
20211130003115 69 338 1.0 2.0 0.00 0.00 0.00 54 1019.6
20211130002115 70 315 2.0 3.0 0.00 0.00 0.00 53 1019.5
20211130001115 70 315 2.0 3.0 0.00 0.00 0.00 53 1019.5
20211130000115 70 338 2.0 2.0 0.00 0.00 0.00 53 1019.6
20211129235116 70 338 4.0 5.0 0.00 0.00 0.00 52 1019.5
20211129234115 70 315 5.0 8.0 0.00 0.00 0.00 51 1019.5
20211129233115 71 315 5.0 7.0 0.00 0.00 0.00 51 1019.5
20211129232115 70 0 2.0 4.0 0.00 0.00 0.00 51 1019.4
20211129231115 71 315 3.0 4.0 0.00 0.00 0.00 50 1019.5
20211129230115 71 315 3.0 4.0 0.00 0.00 0.00 49 1019.5
20211129225115 71 315 3.0 4.0 0.00 0.00 0.00 50 1019.5
20211129224115 71 338 2.0 4.0 0.00 0.00 0.00 48 1019.5
20211129223115 71 315 6.0 8.0 0.00 0.00 0.00 47 1019.6
20211129222115 71 315 6.0 7.0 0.00 0.00 0.00 46 1019.7
20211129221115 70 338 3.0 4.0 0.00 0.00 0.00 47 1019.8
20211129220115 70 338 4.0 7.0 0.00 0.00 0.00 49 1020.0
20211129215115 70 315 4.0 6.0 0.00 0.00 0.00 48 1020.1
20211129214115 69 315 4.0 5.0 0.00 0.00 0.00 50 1020.2
20211129213115 69 338 2.0 3.0 0.00 0.00 0.00 52 1020.3
20211129212115 68 315 1.0 2.0 0.00 0.00 0.00 53 1020.4
20211129211115 67 45 1.0 2.0 0.00 0.00 0.00 57 1020.5
20211129210115 66 315 3.0 3.0 0.00 0.00 0.00 57 1020.7
20211129205115 66 315 4.0 6.0 0.00 0.00 0.00 57 1020.8
20211129204115 66 293 2.0 3.0 0.00 0.00 0.00 58 1021.1
20211129203115 65 338 4.0 5.0 0.00 0.00 0.00 59 1021.2
20211129202115 65 338 5.0 7.0 0.00 0.00 0.00 58 1021.3
20211129201115 65 338 7.0 10.0 0.00 0.00 0.00 56 1021.4
20211129200115 65 0 3.0 6.0 0.00 0.00 0.00 58 1021.4
20211129195115 65 338 7.0 10.0 0.00 0.00 0.00 58 1021.5
20211129194115 65 338 4.0 6.0 0.00 0.00 0.00 58 1021.6
20211129193115 65 293 3.0 8.0 0.00 0.00 0.00 60 1021.7
20211129192115 65 315 3.0 4.0 0.00 0.00 0.00 60 1021.8
20211129191115 65 203 1.0 1.0 0.00 0.00 0.00 63 1022.0
20211129190115 63 270 1.0 2.0 0.00 0.00 0.00 65 1022.1
20211129185115 63 158 2.0 3.0 0.00 0.00 0.00 66 1022.3
20211129184129 62 355 3.0 0.0 0.00 0.00 0.00 67 1022.6
20211129183115 61 248 2.0 3.0 0.00 0.00 0.00 69 1022.7
20211129182115 61 315 3.0 4.0 0.00 0.00 0.00 69 1022.9
20211129181116 61 293 3.0 4.0 0.00 0.00 0.00 70 1022.9
20211129180115 60 293 1.0 1.0 0.00 0.00 0.00 71 1022.9
20211129175115 60 315 1.0 3.0 0.00 0.00 0.00 70 1022.9
20211129174116 61 0.0 1.0 0.00 0.00 0.00 69 1022.9
20211129173115 60 0.0 0.0 0.00 0.00 0.00 70 1022.9
20211129172117 58 0.0 0.0 0.00 0.00 0.00 73 1023.0
20211129171117 58 0.0 0.0 0.00 0.00 0.00 73 1022.9
20211129170118 57 0.0 0.0 0.00 0.00 0.00 73 1022.9
20211129165117 56 0.0 0.0 0.00 0.00 0.00 75 1023.0
20211129164118 56 0.0 0.0 0.00 0.00 0.00 73 1023.0
20211129163116 53 0.0 0.0 0.00 0.00 0.00 82 1022.9
20211129162117 50 0.0 0.0 0.00 0.00 0.00 84 1022.9
20211129161117 49 0.0 0.0 0.00 0.00 0.00 87 1022.8
20211129160117 47 0.0 0.0 0.00 0.00 0.00 89 1022.7
20211129155117 46 0.0 0.0 0.00 0.00 0.00 90 1022.6
20211129154117 45 0.0 0.0 0.00 0.00 0.00 90 1022.5
20211129153118 44 0.0 0.0 0.00 0.00 0.00 91 1022.5
20211129152117 44 0.0 0.0 0.00 0.00 0.00 91 1022.5
20211129151117 43 0.0 0.0 0.00 0.00 0.00 91 1022.4
20211129150117 43 0.0 0.0 0.00 0.00 0.00 91 1022.5
20211129145117 44 0.0 0.0 0.00 0.00 0.00 91 1022.5
20211129144233 44 0.0 0.0 0.00 0.00 0.00 91 1022.4
20211129143517 44 0.0 0.0 0.00 0.00 0.00 91 1022.3
20211129142517 44 0.0 0.0 0.00 0.00 0.00 91 1022.4
20211129141517 44 0.0 0.0 0.00 0.00 0.00 91 1022.2
20211129140517 44 0.0 0.0 0.00 0.00 0.00 91 1022.3
20211129135516 44 0.0 0.0 0.00 0.00 0.00 91 1022.1
20211129134516 44 0.0 0.0 0.00 0.00 0.00 91 1022.1
20211129133517 44 0.0 0.0 0.00 0.00 0.00 90 1022.0
20211129132517 44 0.0 0.0 0.00 0.00 0.00 90 1022.0
20211129131517 44 0.0 0.0 0.00 0.00 0.00 90 1022.0
20211129130516 45 0.0 0.0 0.00 0.00 0.00 90 1022.1
20211129125516 45 0.0 0.0 0.00 0.00 0.00 90 1022.0
20211129124516 45 0.0 0.0 0.00 0.00 0.00 90 1022.1
20211129123516 45 0.0 0.0 0.00 0.00 0.00 90 1022.2
20211129122517 45 0.0 0.0 0.00 0.00 0.00 90 1022.2
20211129121516 45 0.0 0.0 0.00 0.00 0.00 90 1022.2
20211129120517 45 0.0 0.0 0.00 0.00 0.00 89 1022.1
20211129115516 45 0.0 0.0 0.00 0.00 0.00 89 1022.1
20211129114516 45 0.0 0.0 0.00 0.00 0.00 89 1022.2
20211129113517 45 0.0 0.0 0.00 0.00 0.00 89 1022.2
20211129112516 45 0.0 0.0 0.00 0.00 0.00 89 1022.3
20211129111516 46 0.0 0.0 0.00 0.00 0.00 90 1022.3
20211129110516 45 0.0 0.0 0.00 0.00 0.00 89 1022.3
20211129105516 45 0.0 0.0 0.00 0.00 0.00 88 1022.4
20211129104517 46 0.0 0.0 0.00 0.00 0.00 88 1022.4
20211129103516 46 0.0 0.0 0.00 0.00 0.00 88 1022.5
20211129102516 46 0.0 0.0 0.00 0.00 0.00 88 1022.5
20211129101511 46 0.0 0.0 0.00 0.00 0.00 88 1022.5
20211129101116 46 0.0 0.0 0.00 0.00 0.00 88 1022.6
20211129100116 46 0.0 0.0 0.00 0.00 0.00 87 1022.6
20211129095116 47 0.0 0.0 0.00 0.00 0.00 88 1022.6
20211129094116 47 0.0 0.0 0.00 0.00 0.00 88 1022.6
20211129093116 46 0.0 0.0 0.00 0.00 0.00 88 1022.5
20211129092116 47 0.0 0.0 0.00 0.00 0.00 87 1022.5
20211129091116 47 0.0 0.0 0.00 0.00 0.00 87 1022.4
20211129090116 47 0.0 0.0 0.00 0.00 0.00 86 1022.4
20211129085116 47 0.0 0.0 0.00 0.00 0.00 86 1022.4
20211129084117 48 0.0 0.0 0.00 0.00 0.00 86 1022.4
20211129083116 48 0.0 0.0 0.00 0.00 0.00 86 1022.3
20211129082116 48 0.0 0.0 0.00 0.00 0.00 86 1022.3
20211129081116 48 0.0 0.0 0.00 0.00 0.00 86 1022.4
20211129080116 48 0.0 0.0 0.00 0.00 0.00 85 1022.4
20211129075116 49 0.0 0.0 0.00 0.00 0.00 84 1022.4
20211129074116 49 0.0 0.0 0.00 0.00 0.00 86 1022.4
20211129073116 49 0.0 0.0 0.00 0.00 0.00 84 1022.4
20211129072116 49 0.0 0.0 0.00 0.00 0.00 84 1022.4
20211129071116 50 0.0 0.0 0.00 0.00 0.00 83 1022.3
20211129070116 50 0.0 0.0 0.00 0.00 0.00 83 1022.3
20211129065116 50 0.0 0.0 0.00 0.00 0.00 85 1022.3
20211129064116 50 0.0 0.0 0.00 0.00 0.00 85 1022.3
20211129063117 50 0.0 0.0 0.00 0.00 0.00 85 1022.3
20211129062116 50 0.0 0.0 0.00 0.00 0.00 84 1022.3